| time (UTC) | temp C | wind direction | speed KPH | gust KPH | rain 1hr cm | rain 24hr cm | rain mn cm | humidity % | barometer mb |
| 20260506222004 | 8 | 46 | 4.8 | 20.9 | 0.00 | 0.79 | 0.79 | 96 | 1010.2 |
| 20260506221505 | 9 | 29 | 4.8 | 20.9 | 0.00 | 0.79 | 0.79 | 95 | 1009.9 |
| 20260506221025 | 9 | 310 | 4.8 | 19.3 | 0.00 | 0.79 | 0.79 | 96 | 1010.0 |
| 20260506220504 | 9 | 246 | 4.8 | 19.3 | 0.00 | 0.79 | 0.79 | 96 | 1009.8 |
| 20260506220025 | 9 | 193 | 4.8 | 19.3 | 0.00 | 0.79 | 0.79 | 96 | 1009.5 |
| 20260506215504 | 10 | 173 | 4.8 | 16.1 | 0.00 | 0.79 | 0.79 | 96 | 1009.4 |
| 20260506215006 | 10 | 183 | 4.8 | 16.1 | 0.03 | 0.79 | 0.79 | 96 | 1009.3 |
| 20260506214504 | 10 | 184 | 4.8 | 11.3 | 0.03 | 0.79 | 0.79 | 96 | 1009.4 |
| 20260506214025 | 10 | 187 | 4.8 | 14.5 | 0.03 | 0.79 | 0.79 | 96 | 1009.2 |
| 20260506213505 | 10 | 210 | 4.8 | 20.9 | 0.05 | 0.79 | 0.79 | 96 | 1008.9 |
| 20260506213004 | 10 | 227 | 4.8 | 20.9 | 0.05 | 0.79 | 0.79 | 96 | 1008.7 |
| 20260506212525 | 10 | 208 | 4.8 | 19.3 | 0.08 | 0.79 | 0.79 | 96 | 1008.6 |
| 20260506212004 | 10 | 243 | 4.8 | 19.3 | 0.08 | 0.79 | 0.79 | 96 | 1008.4 |
| 20260506211504 | 10 | 235 | 4.8 | 19.3 | 0.08 | 0.79 | 0.79 | 96 | 1008.4 |
| 20260506211026 | 10 | 264 | 4.8 | 20.9 | 0.10 | 0.79 | 0.79 | 96 | 1008.4 |
| 20260506210504 | 11 | 295 | 4.8 | 20.9 | 0.15 | 0.79 | 0.79 | 96 | 1008.3 |
| 20260506210005 | 11 | 263 | 4.8 | 30.6 | 0.15 | 0.79 | 0.79 | 96 | 1008.1 |
| 20260506205504 | 11 | 254 | 6.4 | 30.6 | 0.15 | 0.79 | 0.79 | 96 | 1008.1 |
| 20260506205004 | 11 | 258 | 6.4 | 16.1 | 0.13 | 0.76 | 0.76 | 96 | 1007.8 |
| 20260506204504 | 11 | 283 | 6.4 | 16.1 | 0.13 | 0.76 | 0.76 | 95 | 1007.7 |
| 20260506204004 | 11 | 293 | 6.4 | 20.9 | 0.13 | 0.76 | 0.76 | 95 | 1007.6 |
| 20260506203504 | 12 | 275 | 6.4 | 20.9 | 0.10 | 0.74 | 0.74 | 94 | 1007.5 |
| 20260506203004 | 12 | 270 | 4.8 | 19.3 | 0.10 | 0.74 | 0.74 | 94 | 1007.5 |
| 20260506202505 | 13 | 268 | 4.8 | 19.3 | 0.08 | 0.71 | 0.71 | 95 | 1007.5 |
| 20260506202004 | 13 | 269 | 4.8 | 19.3 | 0.08 | 0.71 | 0.71 | 95 | 1007.4 |
| 20260506201525 | 13 | 254 | 4.8 | 22.5 | 0.08 | 0.71 | 0.71 | 95 | 1007.3 |
| 20260506201025 | 14 | 225 | 4.8 | 22.5 | 0.05 | 0.69 | 0.69 | 95 | 1007.4 |
| 20260506200504 | 15 | 201 | 1.6 | 14.5 | 0.00 | 0.64 | 0.64 | 98 | 1007.1 |
| 20260506200005 | 15 | 193 | 1.6 | 9.7 | 0.00 | 0.64 | 0.64 | 98 | 1007.0 |
| 20260506195504 | 15 | 189 | 1.6 | 9.7 | 0.00 | 0.64 | 0.64 | 98 | 1007.0 |
| 20260506195004 | 15 | 194 | 1.6 | 6.4 | 0.00 | 0.64 | 0.64 | 98 | 1007.1 |
| 20260506194504 | 15 | 210 | 1.6 | 9.7 | 0.00 | 0.64 | 0.64 | 98 | 1007.2 |
| 20260506194004 | 15 | 211 | 1.6 | 9.7 | 0.00 | 0.64 | 0.64 | 98 | 1007.1 |
| 20260506193504 | 15 | 211 | 1.6 | 6.4 | 0.00 | 0.64 | 0.64 | 98 | 1007.2 |
| 20260506193004 | 15 | 211 | 1.6 | 6.4 | 0.00 | 0.64 | 0.64 | 98 | 1007.3 |
| 20260506192504 | 15 | 216 | 1.6 | 6.4 | 0.00 | 0.64 | 0.64 | 98 | 1007.3 |
| 20260506192004 | 15 | 215 | 1.6 | 6.4 | 0.00 | 0.64 | 0.64 | 98 | 1007.3 |
| 20260506191504 | 15 | 215 | 1.6 | 6.4 | 0.00 | 0.64 | 0.64 | 98 | 1007.4 |
| 20260506191004 | 15 | 213 | 1.6 | 9.7 | 0.00 | 0.64 | 0.64 | 98 | 1007.4 |
| 20260506190504 | 15 | 209 | 4.8 | 9.7 | 0.00 | 0.64 | 0.64 | 98 | 1007.1 |
| 20260506190025 | 15 | 202 | 4.8 | 9.7 | 0.00 | 0.64 | 0.64 | 98 | 1007.2 |
| 20260506185504 | 15 | 199 | 1.6 | 9.7 | 0.00 | 0.64 | 0.64 | 98 | 1007.3 |
| 20260506185004 | 15 | 200 | 1.6 | 9.7 | 0.00 | 0.64 | 0.64 | 98 | 1007.4 |
| 20260506184525 | 15 | 191 | 1.6 | 6.4 | 0.00 | 0.64 | 0.64 | 98 | 1007.4 |
| 20260506184005 | 15 | 183 | 1.6 | 6.4 | 0.00 | 0.64 | 0.64 | 98 | 1007.4 |
| 20260506183504 | 15 | 192 | 1.6 | 6.4 | 0.00 | 0.64 | 0.64 | 98 | 1007.4 |
| 20260506183005 | 15 | 211 | 1.6 | 6.4 | 0.00 | 0.64 | 0.64 | 98 | 1007.5 |
| 20260506182504 | 15 | 210 | 1.6 | 6.4 | 0.00 | 0.64 | 0.64 | 98 | 1007.6 |
| 20260506182004 | 15 | 209 | 1.6 | 6.4 | 0.00 | 0.64 | 0.64 | 98 | 1007.5 |
| 20260506181504 | 15 | 218 | 1.6 | 6.4 | 0.00 | 0.64 | 0.64 | 98 | 1007.6 |
| 20260506181025 | 15 | 218 | 1.6 | 6.4 | 0.03 | 0.64 | 0.64 | 98 | 1007.6 |
| 20260506180504 | 15 | 198 | 1.6 | 11.3 | 0.03 | 0.64 | 0.64 | 98 | 1007.6 |
| 20260506180005 | 15 | 196 | 1.6 | 11.3 | 0.03 | 0.64 | 0.64 | 98 | 1007.5 |
| 20260506175504 | 15 | 186 | 4.8 | 14.5 | 0.05 | 0.64 | 0.64 | 98 | 1007.6 |
| 20260506175004 | 15 | 179 | 4.8 | 14.5 | 0.05 | 0.64 | 0.64 | 98 | 1007.6 |
| 20260506174504 | 15 | 181 | 4.8 | 11.3 | 0.05 | 0.64 | 0.64 | 98 | 1007.5 |
| 20260506174004 | 15 | 178 | 4.8 | 11.3 | 0.05 | 0.64 | 0.64 | 97 | 1007.5 |
| 20260506173504 | 15 | 174 | 6.4 | 16.1 | 0.08 | 0.64 | 0.64 | 98 | 1007.5 |
| 20260506173004 | 15 | 179 | 6.4 | 16.1 | 0.08 | 0.64 | 0.64 | 98 | 1007.4 |
| 20260506172504 | 15 | 178 | 6.4 | 16.1 | 0.08 | 0.64 | 0.64 | 98 | 1007.4 |
| 20260506172004 | 15 | 170 | 6.4 | 16.1 | 0.08 | 0.64 | 0.64 | 98 | 1007.4 |
| 20260506171504 | 15 | 169 | 6.4 | 16.1 | 0.08 | 0.64 | 0.64 | 98 | 1007.4 |
| 20260506171004 | 15 | 173 | 4.8 | 14.5 | 0.05 | 0.61 | 0.61 | 98 | 1007.6 |
| 20260506170504 | 15 | 194 | 4.8 | 9.7 | 0.05 | 0.61 | 0.61 | 98 | 1007.7 |
| 20260506170004 | 14 | 207 | 1.6 | 9.7 | 0.08 | 0.61 | 0.61 | 98 | 1007.7 |
| 20260506165504 | 14 | 208 | 1.6 | 6.4 | 0.05 | 0.58 | 0.58 | 98 | 1007.9 |
| 20260506165005 | 14 | 207 | 1.6 | 6.4 | 0.05 | 0.58 | 0.58 | 98 | 1007.8 |
| 20260506164504 | 14 | 194 | 1.6 | 6.4 | 0.05 | 0.58 | 0.58 | 97 | 1007.7 |
| 20260506164004 | 14 | 201 | 1.6 | 6.4 | 0.08 | 0.58 | 0.58 | 97 | 1007.7 |
| 20260506163504 | 14 | 210 | 1.6 | 6.4 | 0.05 | 0.56 | 0.56 | 97 | 1007.8 |
| 20260506163004 | 14 | 210 | 1.6 | 6.4 | 0.08 | 0.56 | 0.56 | 97 | 1007.8 |
| 20260506162504 | 14 | 198 | 1.6 | 6.4 | 0.08 | 0.56 | 0.56 | 97 | 1007.8 |
| 20260506162004 | 14 | 185 | 1.6 | 6.4 | 0.10 | 0.56 | 0.56 | 97 | 1007.8 |
| 20260506161525 | 14 | 193 | 1.6 | 6.4 | 0.13 | 0.56 | 0.56 | 97 | 1007.8 |
| 20260506161004 | 14 | 184 | 1.6 | 11.3 | 0.13 | 0.56 | 0.56 | 97 | 1007.8 |
| 20260506160504 | 14 | 171 | 4.8 | 11.3 | 0.15 | 0.56 | 0.56 | 97 | 1007.9 |
| 20260506160025 | 14 | 170 | 4.8 | 11.3 | 0.13 | 0.53 | 0.53 | 97 | 1007.8 |
| 20260506155504 | 14 | 177 | 4.8 | 20.9 | 0.13 | 0.53 | 0.53 | 97 | 1007.8 |
| 20260506155004 | 14 | 175 | 4.8 | 20.9 | 0.13 | 0.53 | 0.53 | 97 | 1007.9 |
| 20260506154504 | 14 | 173 | 4.8 | 16.1 | 0.15 | 0.53 | 0.53 | 97 | 1007.9 |
| 20260506154004 | 14 | 177 | 6.4 | 20.9 | 0.13 | 0.51 | 0.51 | 97 | 1007.9 |
| 20260506153504 | 14 | 184 | 4.8 | 20.9 | 0.13 | 0.51 | 0.51 | 97 | 1008.1 |
| 20260506153004 | 14 | 187 | 4.8 | 14.5 | 0.13 | 0.48 | 0.48 | 97 | 1008.2 |
| 20260506152504 | 14 | 179 | 4.8 | 11.3 | 0.13 | 0.48 | 0.48 | 97 | 1008.2 |
| 20260506152004 | 14 | 176 | 4.8 | 11.3 | 0.10 | 0.46 | 0.46 | 97 | 1008.2 |
| 20260506151525 | 14 | 177 | 4.8 | 9.7 | 0.08 | 0.43 | 0.43 | 97 | 1008.1 |
| 20260506151025 | 14 | 173 | 4.8 | 14.5 | 0.10 | 0.43 | 0.43 | 97 | 1008.1 |
| 20260506150504 | 14 | 186 | 4.8 | 19.3 | 0.08 | 0.41 | 0.41 | 97 | 1007.9 |
| 20260506150004 | 14 | 195 | 6.4 | 20.9 | 0.10 | 0.41 | 0.41 | 96 | 1007.9 |
| 20260506145504 | 14 | 179 | 6.4 | 20.9 | 0.13 | 0.41 | 0.41 | 96 | 1008.1 |
| 20260506145004 | 14 | 170 | 6.4 | 19.3 | 0.13 | 0.41 | 0.41 | 96 | 1007.9 |
| 20260506144525 | 14 | 169 | 4.8 | 20.9 | 0.13 | 0.38 | 0.38 | 96 | 1008.0 |
| 20260506144004 | 14 | 165 | 6.4 | 20.9 | 0.15 | 0.38 | 0.38 | 96 | 1007.7 |
| 20260506143525 | 14 | 166 | 4.8 | 14.5 | 0.18 | 0.38 | 0.38 | 96 | 1007.9 |
| 20260506143004 | 14 | 171 | 1.6 | 9.7 | 0.18 | 0.36 | 0.36 | 96 | 1008.0 |
| 20260506142525 | 14 | 167 | 4.8 | 11.3 | 0.18 | 0.36 | 0.36 | 96 | 1008.2 |
| 20260506142004 | 14 | 166 | 4.8 | 19.3 | 0.20 | 0.36 | 0.36 | 96 | 1008.0 |
| 20260506141504 | 14 | 167 | 4.8 | 19.3 | 0.23 | 0.36 | 0.36 | 96 | 1007.9 |
| 20260506141004 | 14 | 166 | 4.8 | 14.5 | 0.23 | 0.33 | 0.33 | 96 | 1007.9 |
| 20260506140525 | 14 | 166 | 4.8 | 16.1 | 0.23 | 0.33 | 0.33 | 96 | 1008.0 |
| 20260506140004 | 13 | 165 | 4.8 | 16.1 | 0.23 | 0.30 | 0.30 | 96 | 1008.1 |
| 20260506135504 | 13 | 167 | 4.8 | 16.1 | 0.23 | 0.28 | 0.28 | 96 | 1008.2 |
| 20260506135004 | 13 | 171 | 4.8 | 20.9 | 0.25 | 0.28 | 0.28 | 96 | 1008.3 |
| 20260506134504 | 13 | 167 | 4.8 | 20.9 | 0.25 | 0.25 | 0.25 | 95 | 1008.3 |
| 20260506134004 | 13 | 163 | 1.6 | 16.1 | 0.23 | 0.23 | 0.23 | 95 | 1008.4 |
| 20260506133504 | 13 | 164 | 0.0 | 11.3 | 0.20 | 0.20 | 0.20 | 95 | 1008.5 |
| 20260506133004 | 13 | 168 | 1.6 | 6.4 | 0.18 | 0.18 | 0.18 | 94 | 1008.6 |
| 20260506132525 | 13 | 171 | 1.6 | 6.4 | 0.18 | 0.18 | 0.18 | 93 | 1008.7 |
| 20260506132004 | 13 | 175 | 0.0 | 1.6 | 0.15 | 0.15 | 0.15 | 93 | 1008.6 |
| 20260506131504 | 13 | 175 | 0.0 | 4.8 | 0.13 | 0.13 | 0.13 | 92 | 1008.7 |
| 20260506131004 | 13 | 175 | 0.0 | 4.8 | 0.10 | 0.10 | 0.10 | 91 | 1008.8 |
| 20260506130525 | 13 | 0 | 0.0 | 0.0 | 0.10 | 0.10 | 0.10 | 90 | 1009.0 |
| 20260506130005 | 13 | 175 | 0.0 | 4.8 | 0.08 | 0.08 | 0.08 | 90 | 1009.0 |
| 20260506125504 | 14 | 175 | 1.6 | 4.8 | 0.05 | 0.05 | 0.05 | 88 | 1009.0 |
| 20260506125025 | 14 | 177 | 1.6 | 6.4 | 0.03 | 0.03 | 0.03 | 87 | 1008.9 |
| 20260506124504 | 15 | 184 | 1.6 | 6.4 | 0.00 | 0.00 | 0.00 | 85 | 1008.8 |
| 20260506124004 | 15 | 184 | 1.6 | 6.4 | 0.00 | 0.00 | 0.00 | 82 | 1008.7 |
| 20260506123504 | 15 | 163 | 0.0 | 1.6 | 0.00 | 0.00 | 0.00 | 81 | 1008.4 |
| 20260506123004 | 15 | 163 | 0.0 | 1.6 | 0.00 | 0.00 | 0.00 | 82 | 1008.3 |
| 20260506122504 | 15 | 163 | 0.0 | 1.6 | 0.00 | 0.00 | 0.00 | 79 | 1008.2 |
| 20260506122024 | 15 | 163 | 0.0 | 4.8 | 0.00 | 0.00 | 0.00 | 75 | 1008.1 |
| 20260506121504 | 15 | 163 | 0.0 | 4.8 | 0.00 | 0.00 | 0.00 | 76 | 1008.1 |
| 20260506121004 | 16 | 0 | 0.0 | 0.0 | 0.00 | 0.00 | 0.00 | 75 | 1008.2 |
| 20260506120525 | 16 | 0 | 0.0 | 0.0 | 0.00 | 0.00 | 0.00 | 75 | 1008.4 |
| 20260506120004 | 16 | 0 | 0.0 | 0.0 | 0.00 | 0.00 | 0.00 | 72 | 1008.5 |
| 20260506115525 | 16 | 0 | 0.0 | 0.0 | 0.00 | 0.00 | 0.00 | 71 | 1008.4 |
| 20260506115004 | 16 | 0 | 0.0 | 0.0 | 0.00 | 0.00 | 0.00 | 70 | 1008.5 |
| 20260506114504 | 16 | 0 | 0.0 | 0.0 | 0.00 | 0.00 | 0.00 | 71 | 1008.4 |
| 20260506114004 | 16 | 0 | 0.0 | 0.0 | 0.00 | 0.00 | 0.00 | 70 | 1008.3 |
| 20260506113525 | 16 | 0 | 0.0 | 0.0 | 0.00 | 0.00 | 0.00 | 71 | 1008.4 |
| 20260506113004 | 16 | 0 | 0.0 | 0.0 | 0.00 | 0.00 | 0.00 | 71 | 1008.4 |
| 20260506112503 | 16 | 0 | 0.0 | 0.0 | 0.00 | 0.00 | 0.00 | 70 | 1008.3 |
| 20260506112004 | 16 | 0 | 0.0 | 0.0 | 0.00 | 0.00 | 0.00 | 70 | 1008.3 |
| 20260506111503 | 16 | 0 | 0.0 | 0.0 | 0.00 | 0.00 | 0.00 | 70 | 1008.3 |
| 20260506111004 | 16 | 0 | 0.0 | 0.0 | 0.00 | 0.00 | 0.00 | 69 | 1008.2 |
| 20260506110503 | 16 | 0 | 0.0 | 0.0 | 0.00 | 0.00 | 0.00 | 70 | 1008.3 |
| 20260506110025 | 16 | 0 | 0.0 | 0.0 | 0.00 | 0.00 | 0.00 | 69 | 1008.3 |
| 20260506105503 | 16 | 0 | 0.0 | 0.0 | 0.00 | 0.00 | 0.00 | 66 | 1008.4 |
| 20260506105004 | 16 | 0 | 0.0 | 0.0 | 0.00 | 0.00 | 0.00 | 66 | 1008.3 |
| 20260506104504 | 16 | 0 | 0.0 | 0.0 | 0.00 | 0.00 | 0.00 | 66 | 1008.2 |
| 20260506104024 | 16 | 0 | 0.0 | 0.0 | 0.00 | 0.00 | 0.00 | 67 | 1008.1 |
| 20260506103503 | 16 | 0 | 0.0 | 0.0 | 0.00 | 0.00 | 0.00 | 66 | 1008.1 |
| 20260506103003 | 16 | 0 | 0.0 | 0.0 | 0.00 | 0.00 | 0.00 | 68 | 1007.7 |
| 20260506102504 | 16 | 0 | 0.0 | 0.0 | 0.00 | 0.00 | 0.00 | 67 | 1007.9 |
| 20260506102004 | 16 | 0 | 0.0 | 0.0 | 0.00 | 0.00 | 0.00 | 67 | 1007.8 |
| 20260506101504 | 16 | 165 | 0.0 | 1.6 | 0.00 | 0.00 | 0.00 | 66 | 1007.9 |
| 20260506101004 | 16 | 165 | 0.0 | 1.6 | 0.00 | 0.00 | 0.00 | 66 | 1007.9 |
| 20260506100504 | 16 | 0 | 0.0 | 0.0 | 0.00 | 0.00 | 0.00 | 66 | 1007.8 |
| 20260506100004 | 16 | 0 | 0.0 | 0.0 | 0.00 | 0.00 | 0.00 | 66 | 1007.7 |
| 20260506095503 | 16 | 0 | 0.0 | 0.0 | 0.00 | 0.00 | 0.00 | 64 | 1007.8 |
| 20260506095024 | 16 | 0 | 0.0 | 0.0 | 0.00 | 0.00 | 0.00 | 63 | 1007.9 |
| 20260506094503 | 16 | 0 | 0.0 | 0.0 | 0.00 | 0.00 | 0.00 | 64 | 1008.0 |
| 20260506094003 | 16 | 0 | 0.0 | 0.0 | 0.00 | 0.00 | 0.00 | 64 | 1008.0 |
| 20260506093503 | 16 | 165 | 0.0 | 1.6 | 0.00 | 0.00 | 0.00 | 63 | 1007.9 |
| 20260506093004 | 16 | 165 | 0.0 | 1.6 | 0.00 | 0.00 | 0.00 | 64 | 1007.9 |
| 20260506092503 | 16 | 165 | 0.0 | 1.6 | 0.00 | 0.00 | 0.00 | 65 | 1007.8 |
| 20260506092003 | 16 | 0 | 0.0 | 0.0 | 0.00 | 0.00 | 0.00 | 64 | 1007.9 |
| 20260506091525 | 16 | 0 | 0.0 | 0.0 | 0.00 | 0.00 | 0.00 | 63 | 1007.9 |
| 20260506091003 | 16 | 165 | 0.0 | 1.6 | 0.00 | 0.00 | 0.00 | 64 | 1007.9 |
| 20260506090503 | 16 | 165 | 0.0 | 1.6 | 0.00 | 0.00 | 0.00 | 65 | 1007.9 |
| 20260506090004 | 16 | 166 | 0.0 | 4.8 | 0.00 | 0.00 | 0.00 | 64 | 1008.0 |
| 20260506085503 | 16 | 168 | 0.0 | 4.8 | 0.00 | 0.00 | 0.00 | 63 | 1008.1 |
| 20260506085003 | 16 | 169 | 0.0 | 4.8 | 0.00 | 0.00 | 0.00 | 65 | 1008.1 |
| 20260506084503 | 16 | 169 | 0.0 | 4.8 | 0.00 | 0.00 | 0.00 | 63 | 1008.3 |
| 20260506084003 | 16 | 169 | 1.6 | 4.8 | 0.00 | 0.00 | 0.00 | 66 | 1008.1 |
| 20260506083503 | 16 | 169 | 0.0 | 4.8 | 0.00 | 0.00 | 0.00 | 65 | 1008.2 |
| 20260506083004 | 16 | 169 | 0.0 | 1.6 | 0.00 | 0.00 | 0.00 | 62 | 1008.5 |
| 20260506082503 | 16 | 169 | 0.0 | 1.6 | 0.00 | 0.00 | 0.00 | 62 | 1008.3 |
| 20260506082024 | 16 | 169 | 0.0 | 1.6 | 0.00 | 0.00 | 0.00 | 62 | 1008.3 |
| 20260506081503 | 16 | 169 | 1.6 | 4.8 | 0.00 | 0.00 | 0.00 | 62 | 1008.2 |
| 20260506081003 | 16 | 169 | 1.6 | 4.8 | 0.00 | 0.00 | 0.00 | 62 | 1008.1 |
| 20260506080525 | 16 | 169 | 0.0 | 4.8 | 0.00 | 0.00 | 0.00 | 61 | 1008.1 |
| 20260506073503 | 16 | 0 | 0.0 | 0.0 | 0.00 | 0.00 | 0.00 | 64 | 1008.0 |
| 20260506073003 | 16 | 169 | 0.0 | 1.6 | 0.00 | 0.00 | 0.00 | 63 | 1008.1 |
| 20260506072524 | 16 | 169 | 0.0 | 1.6 | 0.00 | 0.00 | 0.00 | 62 | 1008.1 |
| 20260506072003 | 16 | 169 | 0.0 | 1.6 | 0.00 | 0.00 | 0.00 | 63 | 1008.3 |
| 20260506071503 | 16 | 169 | 0.0 | 4.8 | 0.00 | 0.00 | 0.00 | 63 | 1008.3 |
| 20260506071024 | 16 | 169 | 0.0 | 4.8 | 0.00 | 0.00 | 0.00 | 64 | 1008.4 |
| 20260506070504 | 16 | 169 | 0.0 | 4.8 | 0.00 | 0.00 | 0.00 | 63 | 1008.5 |
| 20260506062503 | 16 | 0 | 0.0 | 0.0 | 0.00 | 0.00 | 0.00 | 66 | 1008.7 |
| 20260506062003 | 16 | 0 | 0.0 | 0.0 | 0.00 | 0.00 | 0.00 | 66 | 1008.7 |
| 20260506061524 | 15 | 0 | 0.0 | 0.0 | 0.00 | 0.00 | 0.00 | 66 | 1008.7 |
| 20260506061024 | 16 | 0 | 0.0 | 0.0 | 0.00 | 0.00 | 0.00 | 67 | 1008.8 |
| 20260506060503 | 16 | 0 | 0.0 | 0.0 | 0.00 | 0.00 | 0.00 | 69 | 1008.7 |
| 20260506051026 | 16 | 0 | 0.0 | 0.0 | 0.00 | 0.00 | 0.00 | 68 | 1009.4 |
| 20260506050505 | 16 | 0 | 0.0 | 0.0 | 0.00 | 0.00 | 0.00 | 68 | 1009.4 |
| 20260506045005 | 16 | 0 | 0.0 | 0.0 | 0.00 | 0.00 | 0.00 | 68 | 1009.3 |
| 20260506044505 | 16 | 0 | 0.0 | 0.0 | 0.00 | 0.00 | 0.00 | 69 | 1009.2 |
| 20260506044005 | 16 | 0 | 0.0 | 0.0 | 0.00 | 0.00 | 0.00 | 69 | 1009.2 |
| 20260506043505 | 16 | 0 | 0.0 | 0.0 | 0.00 | 0.00 | 0.00 | 70 | 1009.2 |
| 20260506043005 | 16 | 0 | 0.0 | 0.0 | 0.00 | 0.00 | 0.00 | 70 | 1009.3 |
| 20260506042505 | 16 | 0 | 0.0 | 0.0 | 0.00 | 0.00 | 0.00 | 70 | 1009.3 |
| 20260506042026 | 16 | 0 | 0.0 | 0.0 | 0.00 | 0.00 | 0.00 | 70 | 1009.5 |
| 20260506041505 | 16 | 0 | 0.0 | 0.0 | 0.00 | 0.00 | 0.00 | 69 | 1009.5 |
| 20260506041005 | 16 | 0 | 0.0 | 0.0 | 0.00 | 0.00 | 0.00 | 69 | 1009.5 |
| 20260506040505 | 16 | 0 | 0.0 | 0.0 | 0.00 | 0.00 | 0.00 | 69 | 1009.5 |
| 20260506040005 | 16 | 0 | 0.0 | 0.0 | 0.00 | 0.00 | 0.00 | 69 | 1009.6 |
| 20260506035505 | 17 | 0 | 0.0 | 0.0 | 0.00 | 0.00 | 0.00 | 68 | 1009.6 |
| 20260506035026 | 17 | 0 | 0.0 | 0.0 | 0.00 | 0.00 | 0.00 | 68 | 1009.7 |
| 20260506034505 | 17 | 0 | 0.0 | 0.0 | 0.00 | 0.00 | 0.00 | 68 | 1009.5 |
| 20260506034005 | 17 | 0 | 0.0 | 0.0 | 0.00 | 0.00 | 0.00 | 67 | 1009.7 |
| 20260506033505 | 17 | 173 | 0.0 | 4.8 | 0.00 | 0.00 | 0.00 | 68 | 1009.6 |
| 20260506033005 | 17 | 175 | 0.0 | 4.8 | 0.00 | 0.00 | 0.00 | 67 | 1009.7 |
| 20260506032505 | 17 | 179 | 0.0 | 4.8 | 0.00 | 0.00 | 0.00 | 67 | 1009.6 |
| 20260506032005 | 17 | 0 | 0.0 | 0.0 | 0.00 | 0.00 | 0.00 | 67 | 1009.6 |
| 20260506031505 | 17 | 0 | 0.0 | 0.0 | 0.00 | 0.00 | 0.00 | 67 | 1009.7 |
| 20260506031005 | 17 | 0 | 0.0 | 0.0 | 0.00 | 0.00 | 0.00 | 67 | 1009.7 |
| 20260506030505 | 17 | 0 | 0.0 | 0.0 | 0.00 | 0.00 | 0.00 | 66 | 1009.5 |
| 20260506030005 | 17 | 0 | 0.0 | 0.0 | 0.00 | 0.00 | 0.00 | 66 | 1009.5 |
| 20260506025505 | 17 | 0 | 0.0 | 0.0 | 0.00 | 0.00 | 0.00 | 66 | 1009.5 |
| 20260506025005 | 17 | 0 | 0.0 | 0.0 | 0.00 | 0.00 | 0.00 | 66 | 1009.5 |
| 20260506024505 | 17 | 0 | 0.0 | 0.0 | 0.00 | 0.00 | 0.00 | 65 | 1009.5 |
| 20260506024005 | 17 | 0 | 0.0 | 0.0 | 0.00 | 0.00 | 0.00 | 65 | 1009.5 |
| 20260506023505 | 17 | 0 | 0.0 | 0.0 | 0.00 | 0.00 | 0.00 | 66 | 1009.4 |
| 20260506023026 | 17 | 0 | 0.0 | 0.0 | 0.00 | 0.00 | 0.00 | 65 | 1009.4 |
| 20260506022505 | 18 | 0 | 0.0 | 0.0 | 0.00 | 0.00 | 0.00 | 65 | 1009.3 |
| 20260506022005 | 18 | 0 | 0.0 | 0.0 | 0.00 | 0.00 | 0.00 | 65 | 1009.4 |
| 20260506021526 | 18 | 0 | 0.0 | 0.0 | 0.00 | 0.00 | 0.00 | 64 | 1009.3 |
| 20260506021005 | 18 | 0 | 0.0 | 0.0 | 0.00 | 0.00 | 0.00 | 65 | 1009.4 |
| 20260506020505 | 18 | 0 | 0.0 | 0.0 | 0.00 | 0.00 | 0.00 | 64 | 1009.4 |
| 20260506020005 | 18 | 0 | 0.0 | 0.0 | 0.00 | 0.00 | 0.00 | 63 | 1009.4 |
| 20260506015505 | 18 | 0 | 0.0 | 0.0 | 0.00 | 0.00 | 0.00 | 63 | 1009.4 |
| 20260506015005 | 18 | 0 | 0.0 | 0.0 | 0.00 | 0.00 | 0.00 | 62 | 1009.4 |
| 20260506014505 | 18 | 0 | 0.0 | 0.0 | 0.00 | 0.00 | 0.00 | 62 | 1009.4 |
| 20260506014026 | 19 | 0 | 0.0 | 0.0 | 0.00 | 0.00 | 0.00 | 61 | 1009.4 |
| 20260506013504 | 19 | 0 | 0.0 | 0.0 | 0.00 | 0.00 | 0.00 | 61 | 1009.3 |
| 20260506013027 | 19 | 0 | 0.0 | 0.0 | 0.00 | 0.00 | 0.00 | 60 | 1009.3 |
| 20260506012505 | 19 | 0 | 0.0 | 0.0 | 0.00 | 0.00 | 0.00 | 59 | 1009.2 |
| 20260506012004 | 19 | 0 | 0.0 | 0.0 | 0.00 | 0.00 | 0.00 | 58 | 1009.1 |
| 20260506011505 | 20 | 0 | 0.0 | 0.0 | 0.00 | 0.00 | 0.00 | 58 | 1009.0 |
| 20260506011005 | 20 | 0 | 0.0 | 0.0 | 0.00 | 0.00 | 0.00 | 58 | 1008.9 |
| 20260506010505 | 20 | 0 | 0.0 | 0.0 | 0.00 | 0.00 | 0.00 | 57 | 1008.8 |
| 20260506010004 | 20 | 0 | 0.0 | 0.0 | 0.00 | 0.00 | 0.00 | 57 | 1008.8 |
| 20260506005504 | 20 | 0 | 0.0 | 0.0 | 0.00 | 0.00 | 0.00 | 56 | 1008.7 |
| 20260506005005 | 20 | 0 | 0.0 | 0.0 | 0.00 | 0.00 | 0.00 | 56 | 1008.7 |
| 20260506004505 | 20 | 0 | 0.0 | 0.0 | 0.00 | 0.00 | 0.00 | 55 | 1008.6 |
| 20260506004005 | 20 | 0 | 0.0 | 0.0 | 0.00 | 0.00 | 0.00 | 56 | 1008.6 |
| 20260506003505 | 21 | 0 | 0.0 | 0.0 | 0.00 | 0.00 | 0.00 | 55 | 1008.5 |
| 20260506003005 | 21 | 0 | 0.0 | 0.0 | 0.00 | 0.00 | 0.00 | 54 | 1008.5 |
| 20260506002504 | 21 | 0 | 0.0 | 0.0 | 0.00 | 0.00 | 0.00 | 53 | 1008.6 |
| 20260506002005 | 21 | 0 | 0.0 | 0.0 | 0.00 | 0.00 | 0.00 | 53 | 1008.6 |
| 20260506001504 | 21 | 0 | 0.0 | 0.0 | 0.00 | 0.00 | 0.00 | 54 | 1008.6 |
| 20260506001005 | 21 | 0 | 0.0 | 0.0 | 0.00 | 0.00 | 0.00 | 54 | 1008.5 |
| 20260506000505 | 21 | 0 | 0.0 | 0.0 | 0.00 | 0.00 | 0.00 | 53 | 1008.5 |
| 20260506000005 | 21 | 0 | 0.0 | 0.0 | 0.00 | 0.00 | 0.00 | 52 | 1008.4 |
| 20260505235505 | 21 | 0 | 0.0 | 0.0 | 0.00 | 0.00 | 0.00 | 53 | 1008.4 |
| 20260505235005 | 21 | 0 | 0.0 | 0.0 | 0.00 | 0.00 | 0.00 | 54 | 1008.4 |
| 20260505234504 | 21 | 0 | 0.0 | 0.0 | 0.00 | 0.00 | 0.00 | 52 | 1008.3 |
| 20260505234005 | 21 | 0 | 0.0 | 0.0 | 0.00 | 0.00 | 0.00 | 50 | 1008.2 |
| 20260505233504 | 21 | 0 | 0.0 | 0.0 | 0.00 | 0.00 | 0.00 | 50 | 1008.2 |
| 20260505233004 | 22 | 0 | 0.0 | 0.0 | 0.00 | 0.00 | 0.00 | 53 | 1008.3 |
| 20260505232504 | 22 | 0 | 0.0 | 0.0 | 0.00 | 0.00 | 0.00 | 51 | 1008.2 |
| 20260505232004 | 22 | 214 | 0.0 | 1.6 | 0.00 | 0.00 | 0.00 | 53 | 1008.1 |
| 20260505231504 | 22 | 214 | 0.0 | 4.8 | 0.00 | 0.00 | 0.00 | 52 | 1008.2 |
| 20260505231004 | 22 | 214 | 0.0 | 4.8 | 0.00 | 0.00 | 0.00 | 51 | 1008.1 |
| 20260505230504 | 22 | 214 | 0.0 | 1.6 | 0.00 | 0.00 | 0.00 | 53 | 1008.1 |
| 20260505230005 | 22 | 214 | 0.0 | 4.8 | 0.00 | 0.00 | 0.00 | 52 | 1008.1 |
| 20260505225504 | 22 | 214 | 0.0 | 4.8 | 0.00 | 0.00 | 0.00 | 51 | 1008.1 |
| 20260505225026 | 22 | 216 | 0.0 | 4.8 | 0.00 | 0.00 | 0.00 | 50 | 1008.1 |
| 20260505224505 | 22 | 216 | 0.0 | 4.8 | 0.00 | 0.00 | 0.00 | 50 | 1008.0 |
| 20260505224005 | 22 | 212 | 0.0 | 4.8 | 0.00 | 0.00 | 0.00 | 51 | 1008.1 |
| 20260505223505 | 22 | 209 | 0.0 | 4.8 | 0.00 | 0.00 | 0.00 | 50 | 1007.9 |
| 20260505223005 | 22 | 205 | 0.0 | 4.8 | 0.00 | 0.00 | 0.00 | 51 | 1007.9 |
| 20260505222526 | 22 | 201 | 0.0 | 1.6 | 0.00 | 0.00 | 0.00 | 51 | 1007.8 |